x

8461490 - New London, Ct (nlnc3) Weather Station

6:54 - Wed 30th Jul 2014 All times are EDT. -4 hours from GMT.

  • Wind
    7mph, 11mph gusts
  • Sea Temp 72°f
  • Ar Temp 75°f
  • Sea Pressure 1015.7mb
  • 8461490 - New London, Ct
  • 8461490 - New London, Ct

More Historic Weather Station data

Upgrade to MSW Pro to gain access to the past 30 days of data for over 8000 Wavebouys and Weather Stations around the globe.

Join Pro

Comparision Forecast

View Surf forecast
   
Qua 07/30 6:54 7 11 mph 1015.7mb 72f 75f
6:48 9 11 mph 1015.7mb 71f 74f
6:42 8 11 mph 1015.6mb 71f 74f
6:36 9 14 mph 1015.5mb 70f 74f
6:30 8 13 mph 1015.5mb 69f 75f
6:24 6 9 mph 1015.4mb 69f 75f
6:18 8 10 mph 1015.4mb 69f 75f
6:12 5 11 mph 1015.4mb 70f 76f
6:06 6 11 mph 1015.4mb 70f 76f
6:00 8 13 mph 1015.3mb 70f 75f
5:54 9 13 mph 1015.4mb 69f 75f
5:48 7 13 mph 1015.4mb 69f 75f
5:42 9 13 mph 1015.3mb 69f 75f
5:36 8 10 mph 1015.3mb 70f 74f
5:30 9 13 mph 1015.4mb 69f 73f
5:24 10 13 mph 1015.4mb 69f 73f
5:18 11 14 mph 1015.3mb 69f 73f
5:12 13 15 mph 1015.3mb 69f 73f
5:06 11 14 mph 1015.3mb 69f 74f
5:00 10 15 mph 1015.3mb 69f 74f
4:54 11 14 mph 1015.2mb 69f 74f
4:48 9 14 mph 1015.2mb 69f 74f
4:42 9 14 mph 1015.2mb 69f 74f
4:36 10 14 mph 1015.2mb 69f 74f
4:30 8 14 mph 1015.2mb 69f 75f
4:24 11 14 mph 1015.2mb 69f 74f
4:18 11 15 mph 1015.1mb 69f 73f
4:12 13 15 mph 1015.2mb 69f 73f
4:06 11 15 mph 1015.2mb 69f 73f
4:00 11 16 mph 1015.2mb 69f 75f
3:54 14 16 mph 1015.2mb 69f 75f
3:48 11 15 mph 1015.2mb 69f 76f
3:42 8 16 mph 1015.2mb 69f 76f
3:36 9 14 mph 1015.1mb 69f 75f
3:30 11 17 mph 1015.1mb 69f 76f
3:24 10 14 mph 1015mb 69f 76f
3:18 10 14 mph 1015mb 69f 77f
3:12 8 14 mph 1015.1mb 69f 77f
3:06 10 14 mph 1015mb 69f 76f
3:00 9 14 mph 1015.1mb 69f 77f
2:54 8 14 mph 1015.1mb 70f 76f
2:48 9 15 mph 1015mb 69f 77f
2:42 10 14 mph 1015.1mb 68f 76f
2:36 10 14 mph 1015.1mb 68f 76f
2:30 11 14 mph 1015.1mb 68f 76f
2:24 9 14 mph 1015.1mb 68f 76f
2:18 9 14 mph 1015.1mb 68f 76f
2:12 7 14 mph 1015.1mb 68f 76f
2:06 11 14 mph 1015.1mb 68f 75f
2:00 9 13 mph 1015.1mb 68f 76f
1:54 10 13 mph 1015mb 68f 75f
1:48 10 13 mph 1015.1mb 68f 75f
1:42 6 10 mph 1015mb 69f 77f
1:36 8 11 mph 1015.1mb 68f 75f
1:30 8 13 mph 1015mb 68f 75f
1:24 9 11 mph 1015.1mb 69f 74f
1:18 9 11 mph 1015.2mb 69f 74f
1:12 8 10 mph 1015.2mb 69f 75f
1:06 9 10 mph 1015.2mb 69f 75f
1:00 8 14 mph 1015.2mb 69f 75f
12:54 7 10 mph 1015.2mb 69f 75f
12:48 7 9 mph 1015.2mb 69f 75f
12:42 7 11 mph 1015.2mb 69f 75f
12:36 7 9 mph 1015.3mb 69f 76f
12:30 7 10 mph 1015.4mb 68f 75f
12:24 8 11 mph 1015.4mb 69f 75f
12:18 8 10 mph 1015.4mb 69f 74f
12:12 7 10 mph 1015.4mb 69f 74f
12:06 6 15 mph 1015.4mb 69f 75f
12:00 9 11 mph 1015.5mb 69f 74f
11:54 10 13 mph 1015.6mb 69f 73f
11:48 9 13 mph 1015.6mb 69f 72f
11:42 10 13 mph 1015.6mb 69f 71f
11:36 10 15 mph 1015.7mb 69f 71f
11:30 9 11 mph 1015.7mb 69f 73f
11:24 10 14 mph 1015.7mb 69f 71f
11:18 9 14 mph 1015.7mb 69f 71f
11:12 8 11 mph 1015.7mb 69f 73f
11:06 9 11 mph 1015.6mb 69f 72f
11:00 10 14 mph 1015.6mb 69f 71f
10:54 11 15 mph 1015.6mb 68f 70f
10:48 9 13 mph 1015.5mb 68f 71f
10:42 9 14 mph 1015.5mb 68f 70f
10:36 11 14 mph 1015.5mb 68f 69f
10:30 13 14 mph 1015.5mb 68f 69f
10:24 9 11 mph 1015.5mb 68f 71f
10:18  -  mph 1015.4mb 68f 74f
10:12  -  mph 1015.4mb 68f 73f
10:06  -  mph 1015.4mb 68f 72f
10:00  -  1 mph 1015.3mb 68f 71f
9:54 1 2 mph 1015.3mb 68f 71f
9:48 2 3 mph 1015.3mb 68f 71f
9:42 2 3 mph 1015.3mb 68f 71f
9:36 2 3 mph 1015.3mb 68f 71f
9:30 2 5 mph 1015.3mb 68f 70f
9:24 3 6 mph 1015.3mb 67f 69f
9:18 5 6 mph 1015.3mb 67f 69f
9:12 5 6 mph 1015.2mb 67f 69f
9:06 6 7 mph 1015.2mb 67f 68f
9:00 5 6 mph 1015.2mb 67f 68f
8:54 6 7 mph 1015.2mb 68f 67f
8:48 5 7 mph 1015.2mb 68f 67f
8:42 6 7 mph 1015.3mb 68f 66f
8:36 6 7 mph 1015.3mb 68f 66f
8:30 5 7 mph 1015.3mb 68f 65f
8:24 5 7 mph 1015.4mb 68f 65f
8:18 6 7 mph 1015.4mb 68f 64f
8:12 6 8 mph 1015.4mb 68f 64f
8:06 6 8 mph 1015.4mb 68f 64f
8:00 7 8 mph 1015.3mb 68f 63f
7:54 7 8 mph 1015.3mb 68f 63f
7:48 6 9 mph 1015.3mb 68f 62f
7:42 7 9 mph 1015.4mb 69f 62f
7:36 6 8 mph 1015.4mb 71f 62f
7:30 7 8 mph 1015.4mb 71f 61f
7:24 6 8 mph 1015.4mb 71f 62f
7:18 6 8 mph 1015.3mb 71f 61f
7:12 7 8 mph 1015.2mb 71f 61f
7:06 5 7 mph 1015.2mb 71f 61f
7:00 6 7 mph 1015.1mb 71f 61f
6:54 5 7 mph 1015.1mb 71f 61f
6:48 6 7 mph 1015.1mb 71f 61f
6:42 5 7 mph 1015.1mb 71f 61f
6:36 5 7 mph 1015mb 71f 61f
6:30 5 7 mph 1014.9mb 71f 61f
6:24 5 6 mph 1014.9mb 71f 61f
6:18 6
mph
1014.9mb 71f 61f
6:12 5 7 mph 1014.8mb 71f 61f
6:06 5 7 mph 1014.8mb 71f 61f
6:00 5 7 mph 1014.7mb 71f 61f
5:54 6 8 mph 1014.6mb 71f 61f
5:48 5 6 mph 1014.5mb 71f 61f
5:42 5 6 mph 1014.4mb 71f 61f
5:36 5 6 mph 1014.4mb 71f 61f
5:30 5 6 mph 1014.3mb 71f 61f
5:24 3 5 mph 1014.3mb 71f 61f
5:18 2 5 mph 1014.3mb 71f 62f
5:12 3 5 mph 1014.2mb 71f 62f
5:06 3 5 mph 1014.2mb 70f 62f
5:00 5 6 mph 1014.2mb 70f 62f
4:54 3 5 mph 1014.1mb 70f 62f
4:48 3 5 mph 1014mb 71f 62f
4:42 3 6 mph 1013.9mb 71f 62f
4:36 3 5 mph 1013.8mb 71f 62f
4:30 3 6 mph 1013.8mb 71f 62f
4:24 3 5 mph 1013.8mb 71f 62f
4:18 3 5 mph 1013.7mb 71f 62f
4:12 2 5 mph 1013.7mb 71f 63f
4:06 2 5 mph 1013.7mb 71f 63f
4:00 3 6 mph 1013.6mb 71f 63f
3:54 2 5 mph 1013.6mb 71f 63f
3:48 3 5 mph 1013.6mb 71f 63f
3:42 2 3 mph 1013.5mb 71f 63f
3:36 2 3 mph 1013.5mb 71f 63f
3:30 2 3 mph 1013.4mb 71f 63f
3:24 2 3 mph 1013.4mb 71f 64f
3:18 2 5 mph 1013.4mb 71f 64f
3:12 3 5 mph 1013.3mb 71f 64f
3:06 3 5 mph 1013.3mb 71f 64f
3:00 3 5 mph 1013.3mb 71f 64f
2:54 2 3 mph 1013.2mb 71f 64f
2:48 2 3 mph 1013.3mb 71f 64f
2:42 2 5 mph 1013.5mb 71f 64f
2:36 3 6 mph 1013.4mb 71f 64f
2:30 3 6 mph 1013.5mb 71f 65f
2:24 5 6 mph 1013.6mb 71f 65f
2:18 3 6 mph 1013.6mb 71f 65f
2:12 5 6 mph 1013.7mb 71f 65f
2:06 3 5 mph 1013.7mb 71f 65f
2:00 3 5 mph 1013.7mb 70f 65f
1:54 2 3 mph 1013.7mb 70f 65f
1:48 2 3 mph 1013.8mb 70f 65f
1:42 2
mph
1013.9mb 70f 65f
1:36 1 2 mph 1014mb 70f 65f
1:30 1 2 mph 1014mb 69f 65f
1:24 1 2 mph 1014.1mb 69f 65f
1:18 1 2 mph 1014.1mb 69f 65f
1:12  -  mph 1014.1mb 69f 65f
1:06  -  1 mph 1014.1mb 69f 65f
1:00 1 3 mph 1014mb 69f 65f
12:54 2
mph
1014mb 69f 65f
12:48  -  1 mph 1014mb 69f 65f
12:42 1 2 mph 1014mb 69f 64f
12:36 2
mph
1014mb 69f 64f
12:30 2 3 mph 1014mb 69f 64f
12:24 2
mph
1014mb 69f 65f
12:18 1 2 mph 1013.9mb 69f 65f
12:12 2
mph
1013.8mb 69f 65f
12:06  -  2 mph 1013.7mb 69f 65f
12:00  -  2 mph 1013.7mb 69f 65f
Ter 07/29 11:54  -  2 mph 1013.6mb 69f 65f
11:48  -  3 mph 1013.6mb 69f 65f
11:42 2
mph
1013.6mb 70f 65f
11:36 1 3 mph 1013.6mb 70f 65f
11:30 2 3 mph 1013.5mb 70f 65f
11:24 1 2 mph 1013.5mb 69f 65f
11:18 2 3 mph 1013.5mb 69f 65f
11:12 2 3 mph 1013.4mb 69f 65f
11:06 2 3 mph 1013.4mb 69f 66f
11:00 2 3 mph 1013.3mb 69f 66f
10:54 2 5 mph 1013.3mb 70f 66f
10:48 2 5 mph 1013.3mb 71f 66f
10:42 2 5 mph 1013.3mb 71f 66f
10:36 2 5 mph 1013.3mb 70f 66f
10:30 2 5 mph 1013.2mb 71f 67f
10:24 2 3 mph 1013.2mb 71f 67f
10:18 1 3 mph 1013.2mb 71f 67f
10:12 2 3 mph 1013.2mb 71f 68f
10:06 2 3 mph 1013.2mb 71f 68f
10:00 2 3 mph 1013.1mb 71f 68f
9:54  -  mph 1013.1mb 71f 68f
9:48  -  1 mph 1013mb 71f 68f
9:42 1 3 mph 1013mb 70f 68f
9:36 2 3 mph 1012.9mb 70f 69f
9:30  -  mph 1012.8mb 71f 69f
9:24  -  2 mph 1012.8mb 70f 69f
9:18 2 3 mph 1012.8mb 71f 69f
9:12 2 3 mph 1012.8mb 71f 70f
9:06 1 3 mph 1012.7mb 71f 70f
9:00 2 3 mph 1012.6mb 71f 70f
8:54 2 3 mph 1012.6mb 71f 70f
8:48 2 5 mph 1012.6mb 71f 70f
8:42 2 6 mph 1012.5mb 71f 71f
8:36 3 5 mph 1012.5mb 71f 71f
8:30 2 5 mph 1012.4mb 70f 71f
8:24 2 6 mph 1012.4mb 70f 71f
8:18  -  3 mph 1012.4mb 70f 71f
8:12 2 5 mph 1012.4mb 70f 71f
8:06 2 5 mph 1012.4mb 70f 71f
8:00 1 3 mph 1012.4mb 70f 72f
7:54 2 7 mph 1012.4mb 70f 72f
7:48 3 7 mph 1012.4mb 70f 72f
7:42 3 7 mph 1012.4mb 70f 72f
7:36 5 6 mph 1012.4mb 70f 73f
7:30 3 7 mph 1012.4mb 70f 73f
7:24 5 6 mph 1012.4mb 71f 73f
7:18 6 7 mph 1012.4mb 71f 73f
7:12 6 9 mph 1012.3mb 71f 73f
7:06 5 8 mph 1012.3mb 70f 73f
7:00 6 7 mph 1012.3mb 71f 74f
6:54 6 9 mph 1012.2mb 71f 74f
6:48 6 8 mph 1012mb 72f 74f
6:42 3 8 mph 1011.9mb 73f 74f
6:36 5 9 mph 1011.8mb 73f 74f
6:30 6 11 mph 1011.8mb 73f 74f
6:24 7 9 mph 1011.7mb 72f 74f
6:18 6 10 mph 1011.6mb 72f 75f
6:12 6 11 mph 1011.5mb 72f 75f
6:06 7 11 mph 1011.4mb 71f 74f
6:00 7 10 mph 1011.4mb 71f 75f
5:54 7 11 mph 1011.3mb 72f 75f
5:48 6 13 mph 1011.2mb 72f 75f
5:42 7 13 mph 1011.2mb 72f 75f
5:36 8 14 mph 1011.2mb 72f 74f
5:30 9 13 mph 1011.2mb 73f 74f
5:24 6 11 mph 1011.1mb 72f 75f
5:18 8 13 mph 1011.1mb 72f 74f
5:12 8 13 mph 1011.1mb 72f 74f
5:06 8 13 mph 1011.1mb 71f 74f
5:00 8 14 mph 1011.1mb 71f 74f
4:54 9 14 mph 1011.1mb 72f 73f
4:48 10 15 mph 1011.1mb 72f 74f
4:42 8 14 mph 1011mb 71f 74f
4:36 7 13 mph 1011mb 71f 74f
4:30 10 15 mph 1010.8mb 71f 74f
4:24 8 14 mph 1010.8mb 71f 74f
4:18 10 14 mph 1010.7mb 72f 75f
4:12 10 14 mph 1010.6mb 70f 75f
4:06 9 15 mph 1010.5mb 70f 75f
4:00 11 15 mph 1010.5mb 69f 74f
3:54 8 14 mph 1010.4mb 71f 74f
3:48 9 13 mph 1010.4mb 70f 74f
3:42 7 15 mph 1010.3mb 70f 76f
3:36 10 16 mph 1010.3mb 71f 74f
3:30 11 15 mph 1010.3mb 70f 74f
3:24 9 14 mph 1010.2mb 70f 75f
3:18 10 17 mph 1010.2mb 70f 75f
3:12 9 15 mph 1010.1mb 70f 76f
3:06 9 15 mph 1010.1mb 71f 75f
3:00 9 16 mph 1010.1mb 71f 75f
2:54 10 14 mph 1010mb 70f 75f
2:48 10 14 mph 1009.9mb 70f 76f
2:42 9 15 mph 1009.9mb 70f 75f
2:36 8 14 mph 1009.8mb 70f 76f
2:30 11 14 mph 1009.8mb 69f 74f
2:24 7 10 mph 1009.6mb 70f 75f
2:18 6 11 mph 1009.6mb 70f 76f
2:12 8 11 mph 1009.5mb 70f 75f
2:06  -  10 mph 1009.4mb 70f 76f
2:00 5 10 mph 1009.5mb 70f 76f
1:54 1 6 mph 1009.5mb 70f 76f
1:48 6 11 mph 1009.5mb 70f 76f
1:42 7 10 mph 1009.5mb 70f 76f
1:36 6 13 mph 1009.5mb 69f 76f
1:30 6 9 mph 1009.4mb 69f 77f
1:24 1 8 mph 1009.4mb 69f 76f
1:18 6 13 mph 1009.4mb 69f 76f
1:12 7 13 mph 1009.3mb 69f 76f
1:06 5 9 mph 1009.3mb 69f 77f
1:00 2 11 mph 1009.2mb 69f 77f
12:54 6 10 mph 1009.3mb 69f 76f
12:48 6 10 mph 1009.2mb 69f 74f
12:42 6 13 mph 1009.2mb 69f 76f
12:36 6 9 mph 1009.2mb 69f 75f
12:30 3 7 mph 1009.2mb 69f 74f
12:24 5 8 mph 1009.2mb 70f 76f
12:18 6 8 mph 1009.2mb 70f 75f
12:12 5 9 mph 1009.1mb 70f 75f
12:06 5 9 mph 1009mb 70f 75f
12:00 3 10 mph 1009mb 69f 75f
11:54 7 11 mph 1009mb 69f 74f
11:48 1 6 mph 1009mb 70f 74f
11:42 5 7 mph 1009mb 70f 74f
11:36 5 8 mph 1009mb 70f 73f
11:30 6 9 mph 1008.9mb 70f 74f
11:24 6 9 mph 1009mb 69f 74f
11:18 3 10 mph 1009mb 70f 73f
11:12 6 13 mph 1009mb 70f 74f
11:06 6 7 mph 1008.9mb 69f 73f
11:00 6 9 mph 1008.9mb 69f 72f
10:54 6 8 mph 1009mb 70f 72f
10:48 6 9 mph 1008.9mb 70f 73f
10:42 5 7 mph 1008.9mb 70f 72f
10:36 6 8 mph 1008.8mb 70f 72f
10:30 6 10 mph 1008.8mb 70f 71f
10:24 5 10 mph 1008.8mb 69f 71f
10:18 5 10 mph 1008.7mb 69f 72f
10:12 3 9 mph 1008.7mb 69f 71f
10:06 5 10 mph 1008.7mb 70f 71f
10:00 2 8 mph 1008.7mb 70f 71f
9:54 3 8 mph 1008.7mb 69f 71f
9:48 6 9 mph 1008.6mb 69f 71f
9:42 3 10 mph 1008.5mb 69f 70f
9:36 2 6 mph 1008.5mb 69f 71f
9:30 3 11 mph 1008.5mb 69f 70f
9:24 7 11 mph 1008.5mb 69f 70f
9:18 5 7 mph 1008.4mb 69f 70f
9:12 3 10 mph 1008.3mb 68f 70f
9:06 2 6 mph 1008.2mb 68f 70f
9:00 5 8 mph 1008.2mb 68f 69f
8:54 6 8 mph 1008.2mb 68f 69f
8:48 2 9 mph 1008.3mb 69f 69f
8:42 5 9 mph 1008.2mb 69f 69f
8:36 5 11 mph 1008.1mb 69f 68f
8:30 5 7 mph 1008mb 70f 69f
8:24 2 6 mph 1008mb 69f 68f
8:18 3 6 mph 1008.1mb 70f 68f
8:12 2 6 mph 1008.1mb 71f 69f
8:06 2 6 mph 1008mb 70f 68f
8:00 2 7 mph 1008mb 69f 68f
7:54 3 7 mph 1008mb 68f 67f
7:48 2 8 mph 1008mb 68f 68f
7:42 2 9 mph 1007.9mb 68f 67f
7:36 5 8 mph 1007.8mb 68f 67f
7:30 5 9 mph 1007.8mb 69f 67f
7:24 5 9 mph 1007.7mb 70f 67f
7:18 2 6 mph 1007.6mb 71f 67f
7:12 3 8 mph 1007.5mb 71f 67f
7:06 6 9 mph 1007.4mb 71f 66f
7:00 6 8 mph 1007.3mb 71f 66f
6:54 3 6 mph 1007.2mb 71f 66f
6:48 2 5 mph 1007.1mb 71f 66f
6:42 2 5 mph 1007mb 71f 65f
6:36 3 6 mph 1006.8mb 71f 65f
6:30 3 6 mph 1006.7mb 71f 64f
6:24 1 5 mph 1006.6mb 71f 64f
6:18 1 5 mph 1006.5mb 71f 64f
6:12  -  2 mph 1006.5mb 71f 64f
6:06  -  5 mph 1006.5mb 71f 64f
6:00 2 5 mph 1006.4mb 71f 64f
5:54 2 6 mph 1006.4mb 71f 64f
5:48 1 3 mph 1006.4mb 71f 64f
5:42 2 5 mph 1006.3mb 71f 64f
5:36 1 2 mph 1006.3mb 71f 64f
5:30 3 5 mph 1006.3mb 71f 64f
5:24 5 6 mph 1006.1mb 71f 64f
5:18 2 5 mph 1006.1mb 71f 64f
5:12 1 5 mph 1006.1mb 71f 64f
5:06  -  mph 1006mb 71f 64f
5:00  -  mph 1005.9mb 71f 64f
4:54  -  2 mph 1005.8mb 71f 64f
4:48 2 5 mph 1005.6mb 71f 64f
4:42  -  5 mph 1005.6mb 71f 64f
4:36  -  2 mph 1005.6mb 71f 64f
4:30 2 5 mph 1005.5mb 71f 64f
4:24 2 7 mph 1005.4mb 71f 64f
4:18 3 6 mph 1005.4mb 71f 64f
4:12 3 6 mph 1005.4mb 70f 64f
4:06 3 6 mph 1005.3mb 70f 64f
4:00 2 6 mph 1005.3mb 71f 64f
3:54 2 5 mph 1005.2mb 71f 65f
3:48 2 5 mph 1005mb 71f 65f
3:42 3 6 mph 1005mb 70f 65f
3:36 3 5 mph 1004.9mb 71f 65f
3:30 3 6 mph 1004.8mb 71f 65f
3:24 5 6 mph 1004.7mb 71f 65f
3:18  -  5 mph 1004.6mb 71f 65f
3:12 2 3 mph 1004.5mb 71f 66f
3:06 2 5 mph 1004.4mb 71f 66f
3:00 2 7 mph 1004.5mb 71f 66f
2:54 3 7 mph 1004.4mb 71f 66f
2:48 3 7 mph 1004.3mb 71f 66f
2:42 2 5 mph 1004.2mb 71f 66f
2:36 1 7 mph 1004.2mb 71f 66f
2:30 3 6 mph 1004mb 71f 67f
2:24 2 6 mph 1003.9mb 71f 67f
2:18 3 7 mph 1003.8mb 71f 67f
2:12 2 5 mph 1003.8mb 71f 67f
2:06 3 6 mph 1003.7mb 71f 67f
2:00 3 6 mph 1003.7mb 71f 67f
1:54 3 6 mph 1003.5mb 71f 67f
1:48 2 5 mph 1003.3mb 71f 67f
1:42 2 6 mph 1003.2mb 71f 67f
1:36 5 8 mph 1003mb 71f 67f
1:30 5 9 mph 1002.9mb 71f 67f
1:24 5 8 mph 1002.9mb 71f 68f
1:18 2 8 mph 1002.7mb 71f 68f
1:12 6 7 mph 1002.6mb 71f 68f
1:06 6 11 mph 1002.4mb 71f 68f
1:00 5 10 mph 1002.2mb 71f 68f
12:54 5 9 mph 1002mb 70f 69f
12:48 2 6 mph 1001.9mb 70f 69f
12:42 3 7 mph 1001.9mb 70f 69f
12:36 3 7 mph 1001.7mb 71f 69f
12:30 2 6 mph 1001.6mb 71f 69f
12:24 2 9 mph 1001.5mb 71f 69f
12:18 3 10 mph 1001.4mb 71f 69f
12:12 6 8 mph 1001.5mb 71f 69f
12:06 6 7 mph 1001.5mb 71f 70f
12:00 6 10 mph 1001.6mb 71f 70f
Seg 07/28 11:54 6 10 mph 1001.7mb 71f 70f
11:48 5 9 mph 1001.6mb 71f 70f
11:42 6 9 mph 1001.7mb 71f 70f
11:36 5 11 mph 1001.8mb 71f 70f
11:30 3 8 mph 1001.8mb 71f 71f
11:24 5 10 mph 1001.7mb 71f 71f
11:18 6 9 mph 1001.6mb 71f 71f
11:12 6 9 mph 1001.5mb 71f 71f
11:06 7 10 mph 1001.6mb 71f 71f
11:00 5 9 mph 1001.6mb 71f 72f
10:54 5 7 mph 1001.5mb 71f 72f
10:48 6 7 mph 1001.5mb 70f 72f
10:42 5 11 mph 1001.5mb 71f 72f
10:36 5 11 mph 1001.5mb 71f 73f
10:30 6 11 mph 1001.4mb 71f 73f
10:24 3 13 mph 1001.2mb 70f 73f
10:18 3 9 mph 1001.1mb 71f 74f
10:12 6 10 mph 1001.2mb 70f 74f
10:06 5 10 mph 1001.1mb 71f 74f
10:00 5 9 mph 1001.1mb 71f 74f
9:54 7 11 mph 1001mb 71f 75f
9:48 5 11 mph 1000.9mb 71f 75f
9:42 6 14 mph 1000.8mb 71f 75f
9:36 8 10 mph 1000.8mb 71f 75f
9:30 3 9 mph 1000.6mb 70f 76f
9:24 5 9 mph 1000.4mb 69f 76f
9:18 3 9 mph 1000.3mb 68f 76f
9:12 5 13 mph 1000.3mb 68f 76f
9:06 5 8 mph 1000.2mb 69f 76f
9:00 6 8 mph 1000.1mb 70f 76f
8:54 3 9 mph 1000.1mb 70f 76f
8:48 5 8 mph 1000mb 72f 76f
8:42 5 10 mph 999.8mb 72f 77f
8:36 5 9 mph 999.7mb 71f 77f
8:30 6 13 mph 999.7mb 71f 77f
8:24 5 11 mph 999.6mb 71f 77f
8:18 6 9 mph 999.5mb 71f 77f
8:12 7 9 mph 999.5mb 71f 77f
8:06 5 8 mph 999.4mb 70f 77f
8:00 5 9 mph 999.4mb 70f 77f
7:54 6 9 mph 999.4mb 69f 77f
7:48 8 11 mph 999.3mb 70f 76f
7:42 9 14 mph 999.3mb 69f 77f
7:36 7 11 mph 999.3mb 69f 76f
7:30 8 11 mph 999.3mb 69f 76f
7:24 9 14 mph 999.2mb 69f 76f
7:18 9 15 mph 999.2mb 69f 76f
7:12 11 15 mph 999.2mb 69f 76f
7:06 8 13 mph 999.2mb 69f 76f
7:00 8 17 mph 999.1mb 71f 77f
6:54 10 18 mph 999.2mb 71f 77f
6:48 9 16 mph 999.1mb 71f 78f
6:42 9 17 mph 999mb 71f 78f
6:36 10 16 mph 999mb 71f 78f
6:30 10 18 mph 999mb 71f 77f
6:24 9 14 mph 999mb 71f 78f
6:18 9 15 mph 998.9mb 71f 78f
6:12 7 11 mph 998.9mb 71f 78f
6:06 9 16 mph 998.8mb 72f 78f
6:00 10 14 mph 998.8mb 71f 78f
5:54 8 15 mph 998.6mb 71f 79f
5:48 8 14 mph 998.5mb 71f 80f
5:42 8 14 mph 998.4mb 71f 80f
5:36 7 15 mph 998.4mb 71f 80f
5:30 11 15 mph 998.4mb 71f 79f
5:24 8 16 mph 998.4mb 71f 79f
5:18 10 14 mph 998.4mb 71f 79f
5:12 9 14 mph 998.4mb 71f 79f
5:06 9 14 mph 998.4mb 71f 79f
5:00 11 16 mph 998.3mb 71f 79f
4:54 11 16 mph 998.3mb 72f 79f
4:48 10 17 mph 998.2mb 71f 79f
4:42 9 17 mph 998.2mb 71f 80f
4:36 9 20 mph 998.1mb 70f 80f
4:30 13 21 mph 998.2mb 70f 80f
4:24 11 17 mph 998.1mb 71f 80f
4:18 10 14 mph 998.2mb 69f 80f
4:12 13 16 mph 998.1mb 69f 80f
4:06 9 13 mph 998.1mb 69f 80f
4:00 13 17 mph 998.1mb 69f 80f
3:54 9 14 mph 998.1mb 69f 80f
3:48 11 17 mph 998mb 70f 79f
3:42 13 18 mph 998.1mb 69f 80f
3:36 9 15 mph 998mb 70f 80f
3:30 10 17 mph 998mb 69f 79f
3:24 11 16 mph 998.1mb 69f 79f
3:18 10 14 mph 998.1mb 69f 78f
3:12 10 13 mph 998.1mb 69f 76f
3:06 11 14 mph 998.1mb 69f 76f
3:00 11 14 mph 998.2mb 69f 76f
2:54 10 13 mph 998.2mb 69f 76f
2:48 10 11 mph 998.2mb 70f 76f
2:42 9 11 mph 998.2mb 70f 76f
2:36 9 11 mph 998.2mb 70f 76f
2:30 10 14 mph 998.2mb 70f 76f
2:24 11 15 mph 998.3mb 70f 75f
2:18 10 11 mph 998.3mb 71f 76f
2:12 10 14 mph 998.3mb 70f 76f
2:06 9 11 mph 998.4mb 71f 75f
2:00 9 13 mph 998.4mb 71f 75f
1:54 11 13 mph 998.5mb 71f 74f
1:48 11 13 mph 998.6mb 71f 74f
1:42 11 14 mph 998.6mb 71f 74f
1:36 11 14 mph 998.6mb 71f 73f
1:30 13 15 mph 998.7mb 71f 74f
1:24 11 14 mph 998.8mb 70f 74f
1:18 11 13 mph 998.9mb 70f 73f
1:12 9 11 mph 998.9mb 70f 73f
1:06 10 14 mph 999mb 71f 73f
1:00 10 13 mph 999.1mb 70f 73f
12:54 8 10 mph 999.1mb 70f 73f
12:48 8 10 mph 999.2mb 70f 73f
12:42 7 9 mph 999.3mb 69f 73f
12:36 7 9 mph 999.5mb 69f 73f
12:30 9 13 mph 999.6mb 69f 72f
12:24 11 14 mph 999.6mb 69f 73f
12:18 11 13 mph 999.7mb 69f 73f
12:12 10 13 mph 999.6mb 69f 74f
12:06 10 11 mph 999.7mb 69f 74f
12:00 8 11 mph 999.7mb 69f 74f
11:54 8 13 mph 999.7mb 69f 74f
11:48 6 7 mph 999.8mb 71f 75f
11:42 6 8 mph 999.9mb 70f 75f
11:36 7 8 mph 999.9mb 69f 74f
11:30 6 8 mph 1000mb 69f 74f
11:24 7 9 mph 1000.1mb 70f 74f
11:18 7 9 mph 1000.2mb 68f 75f
11:12 6 7 mph 1000.3mb 68f 74f
11:06 7 8 mph 1000.2mb 68f 73f
11:00 7 8 mph 1000.2mb 69f 74f
10:54 6 13 mph 1000.2mb 69f 74f
10:48 7 11 mph 1000.3mb 69f 75f
10:42 8 13 mph 1000.4mb 69f 74f
10:36 8 13 mph 1000.4mb 69f 75f
10:30 9 14 mph 1000.5mb 69f 75f
10:24 9 11 mph 1000.4mb 69f 75f
10:18 9 13 mph 1000.4mb 69f 74f
10:12 7 13 mph 1000.4mb 70f 75f
10:06 7 13 mph 1000.5mb 69f 74f
10:00 10 15 mph 1000.5mb 68f 74f
9:54 6 13 mph 1000.4mb 68f 74f
9:48 8 15 mph 1000.5mb 68f 74f
9:42 6 14 mph 1000.4mb 69f 74f
9:36 9 15 mph 1000.3mb 69f 73f
9:30 7 11 mph 1000.3mb 69f 74f
9:24 7 15 mph 1000.3mb 69f 73f
9:18 8 14 mph 1000.4mb 69f 73f
9:12 10 14 mph 1000.4mb 69f 73f
9:06 11 14 mph 1000.4mb 69f 73f
9:00 11 16 mph 1000.4mb 69f 73f
8:54 10 16 mph 1000.5mb 69f 73f
8:48 11 15 mph 1000.5mb 69f 73f
8:42 11 15 mph 1000.5mb 68f 72f
8:36 11 20 mph 1000.5mb 68f 72f
8:30 9 14 mph 1000.4mb 69f 72f
8:24 9 14 mph 1000.4mb 69f 72f
8:18 6 13 mph 1000.4mb 69f 72f
8:12 8 11 mph 1000.5mb 69f 72f
8:06 6 10 mph 1000.3mb 69f 71f
8:00 6 7 mph 1000.4mb 69f 71f
7:54 5 7 mph 1000.4mb 69f 71f
7:48 6 7 mph 1000.4mb 70f 71f
7:42 5
mph
1000.4mb 70f 71f
7:36 6
mph
1000.6mb 70f 71f
7:30 6 9 mph 1000.7mb 71f 71f
7:24 8 13 mph 1000.7mb 70f 71f
7:18 7 10 mph 1000.8mb 69f 71f
7:12 9 11 mph 1000.9mb 68f 71f
7:06 8 13 mph 1000.8mb 68f 71f
7:00 10 16 mph 1001.2mb 68f 71f
6:54 10 14 mph 1001.1mb 68f 72f
6:48 10 13 mph 1001.2mb 68f 71f
6:42 9 11 mph 1001mb 69f 71f
6:36 7 10 mph 1000.7mb 70f 72f
6:30 7 9 mph 1000.6mb 71f 72f
6:24 6 8 mph 1000.4mb 71f 72f
6:18 7 9 mph 1000.4mb 71f 72f
6:12 5 13 mph 1000.2mb 70f 72f
6:06 13 16 mph 1000.3mb 70f 72f
6:00 14 18 mph 1001.1mb 70f 72f
5:54 15 18 mph 1001.6mb 71f 72f
5:48 13 16 mph 1001.5mb 71f 72f
5:42 13 16 mph 1001.6mb 71f 72f
5:36 13 15 mph 1001.8mb 71f 72f
5:30 13 15 mph 1002.1mb 71f 71f
5:24 13 16 mph 1002mb 71f 71f
5:18 8 13 mph 1001.8mb 70f 72f
5:12 9 14 mph 1001.6mb 70f 72f
5:06 7 10 mph 1001.4mb 71f 71f
5:00 7 9 mph 1001.4mb 71f 71f
4:54 7 11 mph 1001.5mb 71f 71f
4:48 7 9 mph 1001.5mb 71f 71f
4:42 6 8 mph 1001.6mb 71f 71f
4:36 6 8 mph 1001.6mb 71f 71f
4:30 7 10 mph 1001.7mb 70f 71f
4:24 8 10 mph 1001.8mb 70f 72f
4:18 8 13 mph 1001.6mb 70f 72f
4:12 7 9 mph 1001.6mb 70f 72f
4:06 8 10 mph 1001.6mb 70f 72f
4:00 7 9 mph 1001.6mb 69f 72f
3:54 6 7 mph 1001.6mb 69f 72f
3:48 6 7 mph 1001.6mb 69f 72f
3:42 6 8 mph 1001.7mb 68f 72f
3:36 6 8 mph 1001.8mb 69f 72f
3:30 5 6 mph 1001.9mb 69f 72f
3:24 6 7 mph 1001.9mb 70f 72f
3:18 6 7 mph 1001.9mb 70f 72f
3:12 6
mph
1002.1mb 70f 72f
3:06 5 6 mph 1002.3mb 70f 72f
3:00 7 8 mph 1002.6mb 70f 72f
2:54 8 9 mph 1002.7mb 70f 72f
2:48 7 9 mph 1002.5mb 70f 72f
2:42 6 7 mph 1002.4mb 70f 72f
2:36 5 6 mph 1002.5mb 70f 72f
2:30 6 8 mph 1002.7mb 70f 72f
2:24 6 8 mph 1002.8mb 70f 72f
2:18 6 7 mph 1003mb 71f 72f
2:12 5 7 mph 1003.1mb 71f 72f
2:06 3 6 mph 1003.1mb 70f 72f
2:00 5 6 mph 1003.1mb 70f 72f
1:54 5 7 mph 1003.3mb 70f 72f
1:48 6 8 mph 1003.4mb 70f 72f
1:42 6 8 mph 1003.4mb 70f 72f
1:36 6 7 mph 1003.5mb 70f 72f
1:30 7 9 mph 1003.6mb 70f 72f
1:24 6 7 mph 1003.6mb 70f 72f
1:18 5 7 mph 1003.7mb 70f 72f
1:12 6 8 mph 1003.8mb 70f 72f
1:06 6 9 mph 1003.8mb 70f 72f
1:00 8 9 mph 1004mb 70f 71f
12:54 6 10 mph 1003.9mb 70f 71f
12:48 7 10 mph 1004.1mb 70f 71f
12:42 8 10 mph 1004.1mb 69f 72f
12:36 7 9 mph 1004.2mb 69f 72f
12:30 6 9 mph 1004.2mb 69f 71f
12:24 7 8 mph 1004.3mb 69f 71f
12:18 7 11 mph 1004.5mb 69f 71f
12:12 8 10 mph 1004.5mb 69f 71f
12:06 8 10 mph 1004.4mb 70f 71f
12:00 7 14 mph 1004.4mb 70f 71f
Dom 07/27 11:54 9 17 mph 1004.6mb 70f 71f
11:48 3 5 mph 1004.4mb 70f 72f
11:42 5 6 mph 1004.5mb 70f 71f
11:36 5 6 mph 1004.5mb 70f 71f
11:30 6
mph
1004.5mb 69f 72f
11:24 3 5 mph 1004.4mb 69f 72f
11:18 2 3 mph 1004.4mb 69f 72f
11:12 2
mph
1004.5mb 69f 72f
11:06 2 3 mph 1004.4mb 70f 72f
11:00 3 5 mph 1004.5mb 70f 73f
10:54 2 3 mph 1004.4mb 70f 73f
10:48 2 5 mph 1004.4mb 70f 73f
10:42 2 3 mph 1004.5mb 70f 73f
10:36 2
mph
1004.4mb 70f 74f
10:30 2 3 mph 1004.5mb 70f 74f
10:24 3 6 mph 1004.7mb 70f 74f
10:18 3
mph
1004.6mb 70f 74f
10:12 3 6 mph 1004.7mb 69f 74f
10:06 5 7 mph 1004.7mb 69f 74f
10:00 6 7 mph 1004.7mb 69f 75f
9:54 5 6 mph 1004.6mb 69f 75f
9:48 5 7 mph 1004.6mb 69f 75f
9:42 7 9 mph 1004.6mb 69f 74f
9:36 8
mph
1004.7mb 68f 74f
9:30 6
mph
1004.8mb 69f 74f
9:24 3
mph
1004.9mb 69f 74f
9:18  -  mph 1005.2mb 69f 74f
9:12  -  mph 1005.4mb 70f 73f
9:06  -  2 mph 1005.5mb 70f 74f
9:00 2 8 mph 1005.7mb 70f 73f
8:54 6 10 mph 1006.1mb 70f 74f
8:48 3 6 mph 1006.2mb 70f 74f
8:42  -  1 mph 1005.9mb 70f 74f
8:36  -  2 mph 1005.6mb 70f 74f
8:30  -  2 mph 1005.5mb 69f 75f
8:24 2 3 mph 1005.6mb 69f 75f
8:18  -  1 mph 1005.6mb 70f 75f
8:12 1 5 mph 1005.4mb 70f 76f
8:06 2 6 mph 1005.1mb 69f 76f
8:00 3 7 mph 1005mb 70f 76f
7:54 6 9 mph 1004.9mb 70f 76f
7:48 7 8 mph 1004.7mb 70f 76f
7:42 5 7 mph 1004.6mb 70f 76f
7:36 6 8 mph 1004.7mb 70f 76f
7:30 6 8 mph 1004.8mb 70f 76f
7:24 6 7 mph 1004.8mb 70f 76f
7:18 6 8 mph 1004.7mb 70f 77f
7:12 3 7 mph 1004.6mb 69f 77f
7:06 5 8 mph 1004.6mb 69f 77f
7:00 6 9 mph 1004.6mb 70f 76f
6:54 7 10 mph 1004.6mb 70f 76f
6:48 6 14 mph 1004.7mb 70f 77f
6:42 6 9 mph 1004.7mb 70f 77f
6:36 8 13 mph 1004.8mb 70f 77f
6:30 7 10 mph 1004.7mb 70f 77f
6:24 9 13 mph 1004.8mb 70f 77f
6:18 9 15 mph 1004.9mb 70f 77f
6:12 9 14 mph 1004.8mb 70f 77f
6:06 10 15 mph 1004.8mb 70f 77f
6:00 10 14 mph 1004.9mb 71f 77f
5:54 9 15 mph 1004.9mb 71f 77f
5:48 9 14 mph 1004.7mb 71f 77f
5:42 11 17 mph 1004.8mb 70f 77f
5:36 10 15 mph 1004.7mb 71f 77f
5:30 11 16 mph 1004.8mb 71f 76f
5:24 8 15 mph 1004.9mb 71f 77f
5:18 9 17 mph 1005mb 71f 76f
5:12 10 17 mph 1005.1mb 71f 76f
5:06 9 17 mph 1005.1mb 71f 77f
5:00 10 15 mph 1005.1mb 71f 77f
4:54 11 16 mph 1005.2mb 71f 77f
4:48 10 16 mph 1005.2mb 70f 77f
4:42 9 16 mph 1005.3mb 70f 77f
4:36 9 17 mph 1005.4mb 70f 77f
4:30 10 16 mph 1005.4mb 70f 77f
4:24 11 18 mph 1005.5mb 70f 77f
4:18 10 15 mph 1005.6mb 70f 77f
4:12 10 15 mph 1005.6mb 69f 77f
4:06 11 18 mph 1005.6mb 70f 77f
4:00 11 20 mph 1005.7mb 69f 77f
3:54 9 14 mph 1005.7mb 69f 77f
3:48 10 13 mph 1005.7mb 69f 74f
3:42 10 13 mph 1005.6mb 69f 74f
3:36 10 13 mph 1005.6mb 68f 74f
3:30 9 11 mph 1005.7mb 68f 74f
3:24 11 15 mph 1005.8mb 68f 75f
3:18 10 14 mph 1005.9mb 68f 75f
3:12 10 14 mph 1006mb 68f 75f
3:06 9 15 mph 1006mb 68f 75f
3:00 11 14 mph 1006.1mb 69f 75f
2:54 10 14 mph 1006.1mb 69f 75f
2:48 8 13 mph 1006mb 68f 74f
2:42 9 13 mph 1006.1mb 68f 74f
2:36 9 15 mph 1006.1mb 69f 74f
2:30 10 14 mph 1006.2mb 68f 74f
2:24 11 15 mph 1006.3mb 69f 74f
2:18 7 14 mph 1006.4mb 68f 73f
2:12 9 11 mph 1006.6mb 69f 73f
2:06 9 14 mph 1006.6mb 69f 72f
2:00 8 10 mph 1006.6mb 70f 72f
1:54 10 14 mph 1006.7mb 71f 72f
1:48 10 13 mph 1006.9mb 71f 71f
1:42 8 11 mph 1006.9mb 70f 71f
1:36 9 11 mph 1006.8mb 70f 71f
1:30 8 11 mph 1007.1mb 70f 70f
1:24 9 10 mph 1007.3mb 70f 70f
1:18 8 10 mph 1007.3mb 70f 71f
1:12 8 10 mph 1007.3mb 71f 71f
1:06 8 11 mph 1007.2mb 71f 71f
1:00 9 10 mph 1007.3mb 71f 71f
12:54 9 10 mph 1007.4mb 70f 71f
12:48 8 10 mph 1007.5mb 70f 71f
12:42 8 10 mph 1007.6mb 70f 71f
12:36 9 11 mph 1007.6mb 69f 71f
12:30 9 10 mph 1007.7mb 69f 71f
12:24 9 11 mph 1007.7mb 69f 70f
12:18 9 13 mph 1007.6mb 69f 71f
12:12 11 16 mph 1007.5mb 69f 71f
12:06 10 16 mph 1007.4mb 68f 71f
12:00 14 15 mph 1007.4mb 68f 70f
11:54 10 14 mph 1007.5mb 68f 70f
11:48 11 14 mph 1007.8mb 70f 70f
11:42 11 15 mph 1008mb 70f 70f
11:36 10 15 mph 1008.1mb 69f 70f
11:30 11 14 mph 1008.4mb 69f 71f
11:24 10 13 mph 1008.4mb 69f 71f
11:18 10 13 mph 1008.4mb 69f 71f
11:12 10 13 mph 1008.5mb 70f 71f
11:06 10 11 mph 1008.5mb 70f 71f
11:00 8 11 mph 1008.5mb 70f 71f
10:54 9 10 mph 1008.7mb 69f 71f
10:48 8 10 mph 1008.7mb 68f 71f
10:42 9 11 mph 1008.8mb 68f 71f
10:36 10 11 mph 1008.8mb 68f 71f
10:30 10 13 mph 1008.8mb 68f 71f
10:24 11 15 mph 1008.8mb 68f 71f
10:18 11 15 mph 1008.9mb 68f 71f
10:12 10 13 mph 1008.8mb 68f 71f
10:06 9 13 mph 1008.7mb 68f 71f
10:00 10 13 mph 1008.8mb 68f 72f
9:54 10 11 mph 1008.8mb 69f 72f
9:48 9 11 mph 1008.8mb 68f 72f
9:42 9 11 mph 1008.8mb 68f 72f
9:36 8 10 mph 1008.7mb 69f 72f
9:30 9 11 mph 1008.7mb 68f 72f
9:24 9 13 mph 1008.7mb 68f 72f
9:18 9 14 mph 1008.8mb 68f 72f
9:12 11 14 mph 1008.8mb 68f 72f
9:06 11 14 mph 1008.8mb 69f 73f
9:00 11 13 mph 1008.9mb 69f 73f
8:54 10 13 mph 1009mb 69f 72f
8:48 9 11 mph 1009.1mb 69f 72f
8:42 10 14 mph 1009.2mb 69f 73f
8:36 11 15 mph 1009.3mb 69f 73f
8:30 10 13 mph 1009.3mb 69f 72f
8:24 9 14 mph 1009.3mb 69f 72f
8:18 9 13 mph 1009.2mb 69f 72f
8:12 9 13 mph 1009.3mb 68f 72f
8:06 8 11 mph 1009.4mb 68f 71f
8:00 8 9 mph 1009.4mb 68f 71f
7:54 7 11 mph 1009.4mb 68f 71f
7:48 6 10 mph 1009.5mb 68f 72f
7:42 8 10 mph 1009.6mb 69f 72f
7:36 7 11 mph 1009.6mb 71f 71f
7:30 8 10 mph 1009.7mb 70f 71f
7:24 8 11 mph 1009.7mb 70f 71f
7:18 8 9 mph 1009.8mb 70f 71f
7:12 8 10 mph 1009.9mb 69f 71f
7:06 7 9 mph 1009.8mb 69f 71f
7:00 7 9 mph 1009.9mb 68f 71f
6:54 7 9 mph 1009.9mb 68f 71f
6:48 8 9 mph 1010mb 68f 71f
6:42 7 10 mph 1010mb 68f 71f
6:36 7 9 mph 1010mb 68f 71f
6:30 8 10 mph 1010mb 68f 71f
6:24 7 10 mph 1010mb 68f 71f
6:18 7 9 mph 1010mb 69f 71f
6:12 7 9 mph 1010.1mb 70f 71f
6:06 8 10 mph 1010mb 70f 71f
6:00 8 10 mph 1009.9mb 70f 71f
5:54 7 10 mph 1009.9mb 70f 71f
5:48 8 11 mph 1009.9mb 70f 71f
5:42 8 11 mph 1009.8mb 70f 71f
5:36 8 9 mph 1009.8mb 70f 71f
5:30 8 9 mph 1009.9mb 70f 71f
5:24 7 9 mph 1010mb 70f 71f
5:18 7 9 mph 1010mb 70f 71f
5:12 7 8 mph 1009.9mb 70f 71f
5:06 7 9 mph 1010mb 70f 71f
5:00 6 9 mph 1010.2mb 70f 71f
4:54 6 8 mph 1010.1mb 70f 71f
4:48 6 8 mph 1010.2mb 70f 71f
4:42 7 9 mph 1010.2mb 70f 71f
4:36 7 8 mph 1010.2mb 70f 71f
4:30 6 8 mph 1010.3mb 70f 71f
4:24 5 6 mph 1010.3mb 69f 71f
4:18 5 6 mph 1010.3mb 70f 71f
4:12 3 5 mph 1010.3mb 70f 71f
4:06 3 6 mph 1010.5mb 70f 71f
4:00 3 5 mph 1010.6mb 70f 71f
3:54 2 6 mph 1010.6mb 70f 71f
3:48 5 8 mph 1010.7mb 70f 71f
3:42 6 7 mph 1010.6mb 70f 71f
3:36 5 6 mph 1010.7mb 70f 71f
3:30 3 5 mph 1010.6mb 69f 71f
3:24 3 5 mph 1010.6mb 69f 71f
3:18 3 5 mph 1010.7mb 69f 70f
3:12 5 6 mph 1010.7mb 68f 70f
3:06 5 6 mph 1010.7mb 68f 70f
3:00 5 6 mph 1010.7mb 69f 70f
2:54 5 6 mph 1010.6mb 69f 70f
2:48 5 6 mph 1010.7mb 69f 70f
2:42 3 5 mph 1010.8mb 70f 70f
2:36 3 6 mph 1010.9mb 69f 70f
2:30 3 5 mph 1011mb 69f 70f
2:24 5 6 mph 1011.1mb 69f 70f
2:18 5 6 mph 1011.2mb 69f 70f
2:12 5 6 mph 1011.3mb 70f 70f
2:06 5 6 mph 1011.4mb 70f 70f
2:00 5 7 mph 1011.5mb 69f 70f
1:54 3 5 mph 1011.5mb 69f 70f
1:48 3 5 mph 1011.5mb 69f 70f
1:42 5 6 mph 1011.6mb 70f 70f
1:36 5 7 mph 1011.6mb 70f 70f
1:30 6 7 mph 1011.6mb 70f 70f
1:24 6 7 mph 1011.6mb 70f 70f
1:18 6 7 mph 1011.6mb 70f 70f
1:12 5 6 mph 1011.7mb 70f 70f
1:06 6
mph
1011.8mb 70f 70f
1:00 3 5 mph 1012mb 70f 70f
12:54 5 6 mph 1012mb 70f 70f
12:48 5 6 mph 1012.1mb 70f 70f
12:42 5 6 mph 1012.2mb 70f 70f
12:36 6
mph
1012.2mb 70f 70f
12:30 6 8 mph 1012.2mb 70f 70f
12:24 5 7 mph 1012.3mb 69f 70f
12:18 6 8 mph 1012.3mb 69f 70f
12:12 6 7 mph 1012.3mb 69f 70f
12:06 6 8 mph 1012.3mb 69f 70f
12:00 7 9 mph 1012.3mb 69f 70f
Sáb 07/26 11:54 7 9 mph 1012.2mb 69f 70f
11:48 7 9 mph 1012.3mb 69f 70f
11:42 7 9 mph 1012.2mb 69f 70f
11:36 7 8 mph 1012.2mb 69f 70f